Weather Roundup
Issued by NWS

Home | Current Version | Previous Version | Graphics & Text | Print | Product List | Glossary Off
Versions: 1 2 3 4 5 6 7 8 9 10 11 12 13 14 15 16 17 18 19 20 21 22 23 24 25 26 27 28 29 30 31 32 33 34 35 36 37 38 39 40 41 42 43 44 45 46 47 48 49 50

000
NZUS93 KARX 261859
HRRWXR

CURRENT HOURLY OBSERVATIONS ACROSS
MUCH OF THE UPPER MISSISSIPPI VALLEY
NATIONAL WEATHER SERVICE LA CROSSE WI
200 PM CDT TUE SEP 26 2017


...SOUTHEAST MINNESOTA...


CITY           SKY/WX    TMP DP  RH WIND       PRES   REMARKS
ROCHESTER      CLOUDY    61  55  81 NW10      30.02S
ROCHESTER/MAYO CLOUDY    61  54  77 W18G24    30.01S
WINONA         CLOUDY    63  55  77 NW12G17   29.99R
AUSTIN         CLOUDY    61  54  77 NW13      30.02F
ALBERT LEA     CLOUDY    63  57  82 NW9G17    30.04S
DODGE CENTER   CLOUDY    61  54  77 W14       30.02S
PRESTON        CLOUDY    60  54  80 NW14      30.02R
OWATONNA       CLOUDY    59  55  88 W13G18    30.03S
FARIBAULT      PTSUNNY   63  55  77 W12G18    30.03R
$$

...ELSEWHERE IN MINNESOTA...


CITY           SKY/WX    TMP DP  RH WIND       PRES   REMARKS
MINNEAPOLIS    CLOUDY    62  54  74 W14       29.99S
INTNL FALLS    RAIN      51  48  89 NW5       29.98S FOG
DULUTH         DRZL/FOG  54  54 100 CALM      29.92S VSB 3/4
RED WING       CLOUDY    63  54  72 W10       29.97S
REDWOOD FALLS  CLOUDY    62  50  64 NW12      30.05R
MANKATO        CLOUDY    60  53  77 W14       30.04S
WORTHINGTON    CLOUDY    57  50  77 W16       30.10R
FAIRMONT       CLOUDY    62  52  69 NW12      30.06F
$$

...SOUTHWEST WISCONSIN...


CITY           SKY/WX    TMP DP  RH WIND       PRES   REMARKS
LA CROSSE      CLOUDY    71  63  75 NW9       29.95R
PRAIRIE DU CHI CLOUDY    71  66  85 W6        29.96S
BOSCOBEL       CLOUDY    74  67  78 SW5       29.95F
LONE ROCK      NOT AVBL
PLATTEVILLE    CLOUDY    76  67  74 W12G18    29.97S
FORT MC COY    CLOUDY    67  64  89 SW8       29.94S
MAUSTON-NEW LI CLOUDY    72  67  83 SW7       29.93F HAZE
VIROQUA        CLOUDY    68  67  98 W8        29.96F
WIS DELLS      CLOUDY    72  66  82 W8        29.95S
$$

...ELSEWHERE IN WISCONSIN...


CITY           SKY/WX    TMP DP  RH WIND       PRES   REMARKS
MILWAUKEE      CLOUDY    89  63  41 W9        29.90F HX  90
MADISON        CLOUDY    79  65  62 W6        29.92F
GREEN BAY      CLOUDY    80  66  62 VRB7      29.89F
EAU CLAIRE     CLOUDY    62  57  83 W13       29.95R
BLACK RVR FLS  CLOUDY    70  64  82 W13G22    29.94R
MEDFORD        LGT RAIN  66  63  90 SW6       29.91F
WAUSAU         CLOUDY    72  64  76 SW8       29.90F
WIS RAPIDS     LGT RAIN  70  68  93 SW6       29.93F
MARSHFIELD     CLOUDY    70  63  78 W9        29.92S
RICE LAKE      CLOUDY    60  56  84 W9        29.96S
$$

...NORTHEAST IOWA...


CITY           SKY/WX    TMP DP  RH WIND       PRES   REMARKS
WATERLOO       CLOUDY    65  58  78 NW10      30.00S
DUBUQUE        CLOUDY    74  65  73 NW13      29.97F
DECORAH        NOT AVBL
MASON CITY     CLOUDY    61  53  75 NW15      30.06S
CHARLES CITY   NOT AVBL
OELWEIN        NOT AVBL
$$

...ELSEWHERE IN IOWA...


CITY           SKY/WX    TMP DP  RH WIND       PRES   REMARKS
DES MOINES     CLOUDY    64  56  75 NW14      30.05R
IOWA CITY      CLOUDY    76  64  66 W12       29.99S
FORT DODGE     CLOUDY    62  53  72 N8        30.07F
MARSHALLTOWN   CLOUDY    66  59  78 NW18      30.03R
CEDAR RAPIDS   CLOUDY    70  65  84 NW16      29.98S
$$

...NORTHERN ILLINOIS...


CITY           SKY/WX    TMP DP  RH WIND       PRES   REMARKS
CHICAGO-OHARE  PTSUNNY   91  59  33 SW16      29.91F HX  90
CHICAGO-MIDWAY PTSUNNY   91  61  36 W13       29.92F HX  91
MOLINE         CLOUDY    81  67  62 W14       29.94F
ROCKFORD       CLOUDY    87  60  40 SW13G20   29.92F
PEORIA         SUNNY     90  63  40 SW12G21   29.94F HX  91
$$

NOTE: "FAIR" INDICATES FEW OR NO CLOUDS BELOW 12,000 FEET WITH NO
SIGNIFICANT WEATHER AND/OR OBSTRUCTIONS TO VISIBILITY. WIND
SPEEDS ARE IN MILES-PER-HOUR.




USA.gov is the U.S. government's official web portal to all federal, state and local government web resources and services.